Springfield, VT

6:14 PM EDT on October 13, 2019 (GMT -0400)
Hartness State

Weather History for KVSF - September, 2019

Change the Weather History Date:

Wednesday, September 18, 2019

  Actual Average Record
Temperature  
Mean Temperature 52 °F 58 °F  
Max Temperature 66 °F 70 °F 83 °F (2015)
Min Temperature 38 °F 47 °F 37 °F (2007)
Degree Days  
Heating Degree Days 13 7  
Month to date heating degree days 107 80  
Since 1 July heating degree days 140 135  
Cooling Degree Days 0 0  
Month to date cooling degree days 9 21  
Year to date cooling degree days 399 342  
Growing Degree Days 2 (Base 50)    
Moisture  
Dew Point 40 °F    
Average Humidity 73    
Maximum Humidity 96    
Minimum Humidity 37    
Precipitation  
Precipitation 0.00 in 0.13 in 1.65 in (2004)
Month to date precipitation 1.04 2.03  
Year to date precipitation 26.47 30.40  
Sea Level Pressure  
Sea Level Pressure 30.31 in    
Wind  
Wind Speed 1 mph ()    
Max Wind Speed 14 mph    
Max Gust Speed 21 mph    
Visibility 10.0 miles    
Events      
T = Trace of Precipitation, MM = Missing Value Source: Averaged Metar Reports

Daily Weather History Graph

Daily Weather History Graph

Search for Another Location

Airport or City:

Astronomy

Sep. 18, 2019 Rise Set
Actual Time 6:32 AM EDT 6:55 PM EDT
Civil Twilight 6:04 AM EDT 7:23 PM EDT
Nautical Twilight 5:30 AM EDT 7:57 PM EDT
Astronomical Twilight 4:55 AM EDT 8:31 PM EDT
Moon 9:20 PM EDT (9/18) 10:39 AM EDT (9/18)
Length of Visible Light 13h 19m
Length of Day
12h 22m
Waning Gibbous, 82% of the Moon is Illuminated
Sep 18
Waning Gibbous
Sep 21
Last Quarter
Sep 28
New
Oct 5
First Quarter
Oct 13
Full

Hourly Weather History & Observations

Time (EDT) Temp. Windchill Dew Point Humidity Pressure Visibility Wind Dir Wind Speed Gust Speed Precip Events Conditions
12:54 AM 46.0 °F - 44.1 °F 93% 30.25 in 10.0 mi Calm Calm - N/A   Clear
1:54 AM 45.0 °F - 43.0 °F 93% 30.26 in 10.0 mi Calm Calm - N/A   Clear
2:54 AM 44.1 °F - 42.1 °F 93% 30.26 in 10.0 mi Calm Calm - N/A   Partly Cloudy
3:54 AM 43.0 °F - 41.0 °F 93% 30.26 in 10.0 mi Calm Calm - N/A   Clear
4:54 AM 42.1 °F - 39.9 °F 92% 30.27 in 10.0 mi Calm Calm - N/A   Clear
5:46 AM 41.0 °F - 39.9 °F 96% 30.27 in 10.0 mi Calm Calm - N/A   Mostly Cloudy
5:54 AM 41.0 °F - 39.9 °F 96% 30.28 in 10.0 mi Calm Calm - N/A   Overcast
6:54 AM 43.0 °F - 41.0 °F 93% 30.31 in 10.0 mi Calm Calm - N/A   Overcast
7:54 AM 46.0 °F - 44.1 °F 93% 30.33 in 10.0 mi Calm Calm - N/A   Scattered Clouds
8:54 AM 48.9 °F - 46.0 °F 90% 30.33 in 10.0 mi Calm Calm - N/A   Overcast
9:54 AM 57.0 °F - 45.0 °F 64% 30.33 in 10.0 mi Variable 4.6 mph - N/A   Clear
10:54 AM 59.0 °F - 39.0 °F 48% 30.33 in 10.0 mi North - - N/A   Partly Cloudy
11:54 AM 59.0 °F - 34.0 °F 39% 30.32 in 10.0 mi NNW 12.7 mph 20.7 mph N/A   Clear
12:54 PM 62.1 °F - 37.0 °F 39% 30.32 in 10.0 mi NE 8.1 mph - N/A   Clear
1:54 PM 63.0 °F - 39.9 °F 43% 30.31 in 10.0 mi Variable 6.9 mph - N/A   Clear
2:54 PM 63.0 °F - 39.0 °F 41% 30.30 in 10.0 mi Variable 3.5 mph - N/A   Clear
3:54 PM 64.9 °F - 37.9 °F 37% 30.30 in 10.0 mi NNW 5.8 mph - N/A   Clear
4:54 PM 64.0 °F - 39.0 °F 40% 30.30 in 10.0 mi ESE 5.8 mph - N/A   Clear
5:54 PM 64.0 °F - 37.9 °F 38% 30.31 in 10.0 mi Calm Calm - N/A   Clear
6:54 PM 55.9 °F - 42.1 °F 60% 30.32 in 10.0 mi NW 3.5 mph - N/A   Clear
7:54 PM 50.0 °F - 42.1 °F 74% 30.35 in 10.0 mi Calm Calm - N/A   Clear
8:54 PM 46.0 °F - 41.0 °F 83% 30.36 in 10.0 mi Calm Calm - N/A   Clear
9:54 PM 43.0 °F - 39.9 °F 89% 30.36 in 10.0 mi Calm Calm - N/A   Clear
10:54 PM 41.0 °F 39.0 °F 39.0 °F 93% 30.38 in 10.0 mi West 3.5 mph - N/A   Clear
11:54 PM 39.0 °F - 37.0 °F 93% 30.38 in 10.0 mi Calm Calm - N/A   Clear